{"data":{"norad_id":68354,"intl_designator":"2026-060E","name":"CENTISPACE-2 S5","alt_names":[],"object_type":"PAYLOAD","status":"ACTIVE","operator":null,"country":"PRC","launch_date":"2026-03-22","launch_site_code":"YSLA","launch_vehicle":null,"mission":null,"orbit_class":"UNKNOWN","rcs_meters":null,"size_class":null,"mass_kg":null,"dimensions":null,"purposes":[],"wikipedia_slug":null,"has_3d_model":false,"image_url":null,"decayed_at":null,"tle_current":{"epoch":"2026-05-25T08:46:36.420384Z","epoch_age_seconds":37483,"freshness":"FRESH","line1":"1 68354U 26060E   26145.36569931  .00000212  00000+0  64185-4 0  9992","line2":"2 68354  54.9757 128.9918 0013021  93.4459 266.8029 14.73290319  9409","mean_motion":14.73290319,"eccentricity":0.0013021,"inclination_deg":54.9757,"raan_deg":128.9918,"arg_perigee_deg":93.4459,"mean_anomaly_deg":266.8029,"bstar":6.4185e-5,"rev_number":940,"period_min":97.740410116684,"perigee_km":641.43157799942,"apogee_km":659.73577238175,"semimajor_km":7028.7206751906,"source":"CELESTRAK","updated_at":"2026-05-25T13:38:07.761380Z"}}}